Grove, OK

12:28 AM CST on December 13, 2017 (GMT -0600)
Grove Municipal

Weather History for KGMJ - December, 2011

Change the Weather History Date:

Saturday, December 10, 2011

  Actual Average (KSLG) Record (KSLG)
Temperature  
Mean Temperature 32 °F -  
Max Temperature 44 °F 47 °F 69 °F (1996)
Min Temperature 21 °F 31 °F 10 °F (2013)
Degree Days  
Heating Degree Days 32    
Moisture  
Dew Point 28 °F    
Average Humidity 86    
Maximum Humidity 100    
Minimum Humidity 53    
Precipitation  
Precipitation 0.00 in - - ()
Sea Level Pressure  
Sea Level Pressure 30.53 in    
Wind  
Wind Speed 0 mph (West)    
Max Wind Speed 6 mph    
Max Gust Speed -    
Averages and records for this station are not official NWS values.
T = Trace of Precipitation, MM = Missing Value Source: NWS Daily Summary

Daily Weather History Graph

Daily Weather History Graph

Search for Another Location

Airport or City:

Trip Planner

Search our weather history database for the weather conditions in past years. The results will help you decide how hot, cold, wet, or windy it might be!

Date:

Astronomy

Dec. 10, 2011 Rise Set
Actual Time 7:20 AM CST 5:03 PM CST
Civil Twilight 6:51 AM CST 5:31 PM CST
Nautical Twilight 6:19 AM CST 6:04 PM CST
Astronomical Twilight 5:47 AM CST 6:35 PM CST
Moon 5:18 PM CST (12/10) 7:20 AM CST (12/10)
Length of Visible Light 10h 40m
Length of Day
9h 43m
Full, 100% of the Moon is Illuminated
Dec 10
Full
Dec 17
Last Quarter
Dec 24
New
Jan 1
First Quarter
Jan 9
Full

Hourly Weather History & Observations

Time (CST) Temp. Windchill Dew Point Humidity Pressure Visibility Wind Dir Wind Speed Gust Speed Precip Events Conditions
12:15 AM 26.6 °F - 26.6 °F 100% 30.53 in - Calm Calm - N/A   Unknown
12:35 AM 28.4 °F - 28.4 °F 100% 30.53 in - Calm Calm - N/A   Unknown
12:55 AM 26.6 °F - 26.6 °F 100% 30.53 in - Calm Calm - N/A   Unknown
1:15 AM 26.6 °F - 26.6 °F 100% 30.53 in - Calm Calm - N/A   Unknown
1:35 AM 24.8 °F - 24.8 °F 100% 30.53 in - Calm Calm - N/A   Unknown
1:55 AM 26.6 °F - 26.6 °F 100% 30.53 in - Calm Calm - N/A   Unknown
2:15 AM 23.0 °F - 23.0 °F 100% 30.54 in - Calm Calm - N/A   Unknown
2:35 AM 23.0 °F - 23.0 °F 100% 30.54 in - Calm Calm - N/A   Unknown
2:55 AM 23.0 °F - 23.0 °F 100% 30.54 in - Calm Calm - N/A   Unknown
3:15 AM 23.0 °F - 23.0 °F 100% 30.54 in - Calm Calm - N/A   Unknown
3:55 AM 23.0 °F - 23.0 °F 100% 30.54 in - Calm Calm - N/A   Unknown
4:15 AM 23.0 °F - 23.0 °F 100% 30.54 in - Calm Calm - N/A   Unknown
4:35 AM 23.0 °F - 23.0 °F 100% 30.54 in - Calm Calm - N/A   Unknown
4:55 AM 21.2 °F - 21.2 °F 100% 30.56 in - Calm Calm - N/A   Unknown
5:15 AM 23.0 °F - 23.0 °F 100% 30.56 in - Calm Calm - N/A   Unknown
5:35 AM 21.2 °F - 21.2 °F 100% 30.56 in - Calm Calm - N/A   Unknown
5:55 AM 21.2 °F - 21.2 °F 100% 30.56 in - Calm Calm - N/A   Unknown
6:35 AM 21.2 °F - 21.2 °F 100% 30.57 in - Calm Calm - N/A   Unknown
6:55 AM 21.2 °F - 21.2 °F 100% 30.57 in - Calm Calm - N/A   Unknown
7:15 AM 21.2 °F - 21.2 °F 100% 30.57 in - Calm Calm - N/A   Unknown
7:35 AM 21.2 °F - 21.2 °F 100% 30.57 in - Calm Calm - N/A   Unknown
7:55 AM 21.2 °F - 21.2 °F 100% 30.58 in - Calm Calm - N/A   Unknown
8:15 AM 23.0 °F - 23.0 °F 100% 30.58 in - Calm Calm - N/A   Unknown
8:35 AM 26.6 °F - 26.6 °F 100% 30.58 in - Calm Calm - N/A   Unknown
8:55 AM 26.6 °F - 26.6 °F 100% 30.58 in - Calm Calm - N/A   Unknown
9:15 AM 28.4 °F - 28.4 °F 100% 30.59 in - Calm Calm - N/A   Unknown
9:35 AM 30.2 °F - 30.2 °F 100% 30.60 in - Calm Calm - N/A   Unknown
9:55 AM 32.0 °F - 32.0 °F 100% 30.60 in - Calm Calm - N/A   Unknown
10:15 AM 33.8 °F - 32.0 °F 93% 30.60 in - Calm Calm - N/A   Unknown
10:35 AM 35.6 °F - 33.8 °F 93% 30.60 in - Calm Calm - N/A   Unknown
10:55 AM 37.4 °F - 32.0 °F 81% 30.59 in - Calm Calm - N/A   Clear
11:15 AM 39.2 °F - 32.0 °F 75% 30.58 in - Calm Calm - N/A   Clear
11:35 AM 41.0 °F 38.0 °F 32.0 °F 70% 30.57 in - SSW 4.6 mph - N/A   Clear
11:55 AM 41.0 °F - 30.2 °F 65% 30.56 in - Calm Calm - N/A   Clear
12:15 PM 42.8 °F 41.1 °F 30.2 °F 61% 30.56 in - West 3.5 mph - N/A   Clear
12:35 PM 44.6 °F - 30.2 °F 57% 30.54 in - Calm Calm - N/A   Clear
12:55 PM 44.6 °F 41.4 °F 30.2 °F 57% 30.53 in - SW 5.8 mph - N/A   Clear
1:15 PM 44.6 °F - 28.4 °F 53% 30.52 in - Calm Calm - N/A   Clear
1:35 PM 44.6 °F 41.4 °F 30.2 °F 57% 30.51 in - SSW 5.8 mph - N/A   Clear
1:55 PM 44.6 °F - 30.2 °F 57% 30.50 in - Calm Calm - N/A   Clear
2:15 PM 44.6 °F 42.2 °F 30.2 °F 57% 30.50 in - West 4.6 mph - N/A   Clear
2:35 PM 44.6 °F 42.2 °F 30.2 °F 57% 30.50 in - West 4.6 mph - N/A   Clear
2:55 PM 44.6 °F 42.2 °F 32.0 °F 61% 30.49 in - WNW 4.6 mph - N/A   Clear
3:15 PM 44.6 °F - 32.0 °F 61% 30.49 in - Calm Calm - N/A   Clear
3:35 PM 44.6 °F 42.2 °F 32.0 °F 61% 30.49 in - WNW 4.6 mph - N/A   Clear
3:55 PM 44.6 °F - 32.0 °F 61% 30.48 in - Calm Calm - N/A   Clear
4:15 PM 44.6 °F 43.1 °F 32.0 °F 61% 30.48 in - WNW 3.5 mph - N/A   Clear
4:35 PM 42.8 °F - 32.0 °F 66% 30.48 in - Calm Calm - N/A   Clear
4:55 PM 42.8 °F - 32.0 °F 66% 30.48 in - Calm Calm - N/A   Clear
5:15 PM 41.0 °F - 32.0 °F 70% 30.48 in - Calm Calm - N/A   Clear
5:35 PM 37.4 °F - 32.0 °F 81% 30.48 in - Calm Calm - N/A   Clear
5:55 PM 35.6 °F - 32.0 °F 87% 30.48 in - Calm Calm - N/A   Clear
6:15 PM 35.6 °F - 32.0 °F 87% 30.48 in - Calm Calm - N/A   Clear
6:35 PM 33.8 °F - 30.2 °F 87% 30.48 in - Calm Calm - N/A   Clear
6:55 PM 32.0 °F - 32.0 °F 100% 30.48 in - Calm Calm - N/A   Unknown
7:15 PM 32.0 °F - 30.2 °F 93% 30.48 in - Calm Calm - N/A   Unknown
7:35 PM 32.0 °F - 30.2 °F 93% 30.48 in - Calm Calm - N/A   Unknown
7:55 PM 32.0 °F - 30.2 °F 93% 30.48 in - Calm Calm - N/A   Unknown
8:15 PM 32.0 °F - 32.0 °F 100% 30.48 in - Calm Calm - N/A   Unknown
8:35 PM 30.2 °F - 30.2 °F 100% 30.48 in - Calm Calm - N/A   Unknown
8:55 PM 28.4 °F - 28.4 °F 100% 30.48 in - Calm Calm - N/A   Unknown
9:15 PM 30.2 °F - 30.2 °F 100% 30.48 in - Calm Calm - N/A   Unknown
9:35 PM 28.4 °F - 28.4 °F 100% 30.48 in - Calm Calm - N/A   Unknown
9:55 PM 28.4 °F - 28.4 °F 100% 30.48 in - Calm Calm - N/A   Unknown
10:15 PM 28.4 °F - 28.4 °F 100% 30.48 in - Calm Calm - N/A   Unknown
10:35 PM 28.4 °F - 28.4 °F 100% 30.48 in - Calm Calm - N/A   Unknown
10:55 PM 26.6 °F - 26.6 °F 100% 30.49 in - Calm Calm - N/A   Unknown
11:15 PM 28.4 °F - 28.4 °F 100% 30.49 in - Calm Calm - N/A   Unknown
11:35 PM 26.6 °F - 26.6 °F 100% 30.49 in - Calm Calm - N/A   Unknown
11:55 PM 26.6 °F - 26.6 °F 100% 30.49 in - Calm Calm - N/A   Unknown